Location: Carrières
(48.9495°N, 2.0407°E)
Time: 18:51:03
(UTC+00:00)

ATLAS CENTAUR R/B - Pass Details

Date: 28 January 2023
Orbit: 450 x 653 km, 64.7° (Epoch: 19 March)

Event Time Altitude Azimuth Distance (km) Brightness Sun altitude
Rises 17:33:41 0° 183° (S) 2,981 5.4 -8.6°
Reaches altitude 10° 17:36:19 10° 171° (S) 2,068 4.4 -9.0°
Maximum altitude 17:40:10 25° 116° (ESE) 1,296 2.8 -9.7°
Enters shadow 17:43:15 13° 67° (ENE) 1,812 3.3 -10.1°
